Location: Allonne
(49.4086°N, 2.1143°E)
Time: 23:15:15
(UTC+00:00)

Cosmos 44 Rocket - Pass Details

Date: 03 February 2023
Orbit: 646 x 741 km, 65.1° (Epoch: 21 March)

Event Time Altitude Azimuth Distance (km) Brightness Sun altitude
Rises 19:44:54 0° 221° (SW) 2,959 7.0 -28.5°
Reaches altitude 10° 19:47:10 10° 222° (SW) 2,059 6.1 -28.9°
Enters shadow 19:49:57 36° 228° (SW) 1,040 4.4 -29.3°
